This demonstration page uses our WeatherBlox Daily Observations layout. Learn more.

Left ArrowRight Arrow

Hourly Observations for February 18, 2022

Temp ( °F °C ) Dew Point ( °F °C ) Humidity (%) Winds ( mph kmh ) Pressure ( in mb ) Visibility ( mi km ) Precip ( " mm )
12:56 am 00:56 Clear 13 -10.4 0 -18 54 54 Calm 30.25 1024 10 16 0.00 0.00
1:56 am 01:56 Clear 14 -10 -1 -18.3 51 51 SE 3 6 30.24 1024 10 16 0.00 0.00
2:56 am 02:56 Mostly Clear 15 -9.7 0 -18 51 51 SSE 5 7 30.21 1023 10 16 0.00 0.00
3:56 am 03:56 Partly Cloudy 15 -9.2 1 -17.5 51 51 SE 5 7 30.17 1022 10 16 0.00 0.00
4:56 am 04:56 Mostly Clear 16 -8.8 2 -16.7 53 53 SSE 5 7 30.15 1021 10 16 0.00 0.00
5:56 am 05:56 Clear 18 -7.9 1 -17 48 48 SE 6 9 30.13 1020 10 16 0.00 0.00
6:56 am 06:56 Clear 22 -5.8 1 -17 41 41 SE 6 9 30.14 1021 10 16 0.00 0.00
7:56 am 07:56 Sunny 25 -3.9 4 -15.8 39 39 S 7 11 30.14 1021 10 16 0.00 0.00
8:56 am 08:56 Sunny 32 0.1 7 -13.9 34 34 WSW 13 20 30.13 1020 10 16 0.00 0.00
9:56 am 09:56 Sunny 38 3.1 11 -11.6 33 33 SW 7 11 30.11 1020 10 16 0.00 0.00
10:56 am 10:56 Sunny 43 6.2 16 -8.9 33 33 SW 9 15 30.10 1019 10 16 0.00 0.00
11:56 am 11:56 Sunny 50 9.8 21 -6.2 32 32 SW 7 11 30.06 1018 10 16 0.00 0.00
12:56 pm 12:56 Sunny 51 10.8 23 -4.9 33 33 SSW 9 15 30.04 1017 10 16 0.00 0.00
1:56 pm 13:56 Mostly Sunny 56 13.4 26 -3.1 32 32 SSW 9 15 29.99 1016 10 16 0.00 0.00
2:37 pm 14:37 Mostly Sunny 56 13.4 26 -3.1 32 32 SSW 9 15 29.99 1016 10 16 0.00 0.00
2:38 pm 14:38 Sunny 56 13.4 26 -3.1 32 32 SSW 9 15 29.99 1016 10 16 0.00 0.00
2:56 pm 14:56 Sunny 59 15 27 -3 29 29 SW 12 19 29.96 1015 10 16 0.00 0.00
3:56 pm 15:56 Sunny 59 14.9 23 -5 25 25 W 20 31 29.98 1015 10 16 0.00 0.00
4:56 pm 16:56 undefined 58 14.3 22 -5.5 25 25 W 10 17 29.98 1015 10 16 0.00 0.00
5:56 pm 17:56 Cloudy 56 13.2 22 -5.4 27 27 NW 13 20 30.00 1016 10 16 0.00 0.00
6:12 pm 18:12 undefined 55 13 23 -5 28 28 N 21 33 30.03 1017 10 16 0.00 0.00
6:56 pm 18:56 Cloudy 49 9.3 30 -0.9 49 49 N 20 31 30.10 1019 10 16 0.00 0.00
7:56 pm 19:56 Mostly Cloudy 45 7.3 27 -3 48 48 N 23 37 30.16 1021 10 16 0.00 0.00
8:01 pm 20:01 Mostly Cloudy 43 6 25 -4 49 49 N 18 30 30.18 1022 10 16 0.00 0.00
8:56 pm 20:56 Cloudy 34 1.2 9 -12.9 34 34 N 25 41 30.27 1025 10 16 0.00 0.00
9:56 pm 21:56 Mostly Cloudy 31 -0.7 1 -17.4 27 27 N 17 28 30.32 1027 10 16 0.00 0.00
10:56 pm 22:56 Cloudy 27 -2.9 -2 -18.9 28 28 N 17 28 30.40 1029 10 16 0.00 0.00
11:56 pm 23:56 Cloudy 25 -4 -1 -18.3 32 32 NNW 20 31 30.43 1031 10 16 0.00 0.00

Powered by AerisWeather